Powrót do katalogu

SL-8 DEB

AktywnyLEO
NORAD 15033·DEBRIS·🇷🇺 Russia

Wystrzelony Jun 8, 1984 z Plesetsk Cosmodrome

Loading…

Następne Przeloty (najbliższe 24 godziny)

TLE

ŚwieżeSource: Space-Track

Epoka: Sep 14, 2026, 10:13 UTC

1 15033U 84056C   26257.42588116  .00000781  00000-0  20620-3 0  9991
2 15033  74.0653 261.3395 0010317  94.5580 336.2376 14.50545348215312

Śledź SL-8 DEB w czasie rzeczywistym z AllMySat

Download on the App Store